Wind_Speed
11 11 9 8 10 9 5 4 1 2 2 1 4 2 4 4 1 3 3 4 4 2 1 3 6 5 6 8 11 9 6 2 2 3 2 3 14 23 16 20 28 25 25 23 21 20 19 21 20 20 18 16 15 14 13 12 13 15 18 17 18 17 17 17 18 18 19 20 20 20 20 20 19 19 19 18 17 17 16 15 15 14 15 15 15 15 15 15 14 14 14 15 15 15 16 16 15
11 11 9 7 7 4 1 3 2 2 2 2 4 3 4 3 2 6 6 4 2 2 5 8 10 10 9 11 10 6 8 8 3 3 5 14 19 17 19 26 28 25 25 24 23 21 21 22 21 20 18 16 15 14 13 13 14 15 17 17 18 18 17 17 17 18 18 19 19 20 19 19 19 18 19 18 17 17 16 15 15 15 14 15 15 15 15 15 14 14 14 14 14 14 14 14 15
10 10 8 3 3 3 1 3 2 1 2 4 5 4 3 3 5 7 6 8 9 7 7 8 8 5 6 8 5 4 5 6 6 6 8 17 15 15 22 26 27 25 25 25 23 22 22 21 21 20 18 17 15 14 14 13 14 15 16 16 17 17 17 17 17 18 18 18 19 19 19 19 19 18 18 18 17 17 16 15 15 14 14 14 14 14 13 13 12 13 14 13 13 13 13 13 14
10 9 6 2 2 3 3 2 2 4 4 5 4 5 3 1 5 6 1 10 11 6 3 5 6 4 6 10 5 6 6 3 4 5 6 11 15 21 25 26 26 24 24 25 23 22 22 21 21 20 18 17 15 14 14 14 14 15 16 16 17 17 17 17 17 17 17 18 18 18 18 18 18 18 18 18 17 16 15 15 14 14 14 13 13 12 11 10 10 12 13 12 11 11 11 11 12
8 6 4 4 3 1 2 1 2 4 5 4 3 6 2 2 5 4 2 5 4 1 1 3 5 2 7 7 2 4 6 6 3 4 5 11 20 26 26 26 25 23 23 23 22 22 21 21 20 20 18 17 16 15 14 14 14 15 15 16 16 17 17 17 17 17 17 17 17 17 17 17 17 18 18 17 15 15 14 13 13 12 12 12 11 10 9 9 9 11 13 11 10 10 9 8 8
6 4 3 4 2 1 2 1 2 4 5 4 3 6 3 2 5 3 4 4 4 4 1 2 7 7 6 5 4 4 7 7 5 6 11 18 24 26 27 25 22 22 22 21 22 22 20 20 20 19 18 17 16 15 15 14 14 15 15 15 16 16 16 16 17 16 16 16 16 16 16 16 17 17 16 15 14 13 13 12 11 10 10 10 9 8 8 9 10 10 10 10 10 9 8 7 6
5 3 3 3 1 1 3 3 4 5 5 5 4 6 3 1 2 2 4 4 6 6 3 5 10 11 6 3 5 4 8 10 9 12 17 22 25 26 26 23 21 22 20 20 21 21 20 19 19 18 18 17 16 15 14 15 15 15 15 15 15 16 16 16 16 15 15 15 15 15 15 15 16 16 15 14 13 11 10 9 9 9 9 9 8 8 9 10 10 8 7 8 9 10 10 8 7
3 1 1 3 1 2 3 3 4 4 4 5 4 8 8 2 1 2 2 1 3 3 5 6 6 9 6 4 4 5 8 13 17 18 20 24 25 25 25 23 22 21 19 20 20 20 19 18 18 18 17 16 15 15 14 14 15 14 15 15 14 14 14 15 16 15 15 14 14 14 14 14 14 14 13 12 11 9 9 8 8 8 8 7 7 8 8 9 9 8 6 7 9 11 11 9 8
3 2 1 3 2 1 0 3 4 4 5 7 6 10 10 3 5 2 5 1 2 1 2 4 2 8 7 9 6 4 7 15 22 20 21 24 24 24 22 22 23 21 20 20 20 19 18 18 18 17 16 15 14 14 13 13 14 13 14 15 15 14 14 15 15 15 15 14 13 13 13 13 12 12 11 10 9 7 7 7 8 8 7 7 7 7 7 8 9 8 7 8 11 13 12 10 10
3 2 1 2 2 1 3 3 4 4 5 6 8 11 11 4 7 7 8 3 3 2 2 4 8 13 11 10 6 4 10 19 23 19 20 23 21 22 20 20 22 22 20 20 20 19 17 17 16 16 15 14 13 13 13 13 13 13 13 15 16 15 15 16 15 14 15 14 13 12 12 11 11 11 10 9 7 6 6 7 7 6 6 6 7 7 8 8 9 9 9 11 14 14 12 11 10
2 2 2 3 2 2 4 4 4 5 6 6 8 12 11 6 5 6 6 7 2 2 6 9 12 14 12 8 4 7 17 20 20 19 19 20 21 22 20 20 22 21 21 20 19 18 17 16 15 14 13 12 12 12 13 14 13 13 13 15 16 15 15 16 15 14 15 13 12 12 11 11 11 10 8 7 6 5 5 6 6 5 5 6 6 7 8 9 9 10 12 14 15 14 12 11 10
2 2 4 3 2 3 4 3 5 6 7 6 8 11 6 5 6 7 9 10 6 5 4 4 8 10 10 6 3 10 17 16 17 19 19 20 21 22 21 20 21 21 21 20 20 19 16 15 14 13 12 12 12 13 14 14 14 13 14 15 15 15 14 15 15 15 14 13 11 11 10 10 9 8 6 4 4 4 4 4 5 4 4 5 6 7 9 9 9 11 14 17 16 14 12 11 9
3 2 5 2 3 3 2 3 5 5 6 5 6 8 2 5 8 11 10 12 9 6 2 4 12 9 8 6 4 8 11 15 19 20 20 22 22 22 20 20 20 21 21 21 21 19 17 16 14 13 12 13 13 13 13 14 13 13 14 15 15 14 13 13 14 14 13 12 11 9 9 8 7 5 3 2 3 3 3 3 3 3 4 4 5 7 8 9 9 11 15 18 17 14 12 11 8
3 2 5 2 1 2 2 2 4 2 5 6 5 8 5 2 9 13 14 13 6 5 4 8 13 11 8 7 6 5 9 18 22 22 22 22 22 21 20 21 21 21 20 20 20 19 18 16 14 14 13 13 13 12 13 13 13 14 15 16 15 14 13 13 13 14 12 12 10 8 7 6 4 2 1 1 2 3 2 1 2 2 2 3 5 6 8 8 8 10 15 17 16 14 12 11 8
4 1 4 2 1 1 3 3 3 3 4 6 4 7 4 3 8 15 14 11 4 4 9 8 7 9 9 9 7 8 13 23 24 25 25 23 24 23 22 22 21 21 20 19 19 19 17 15 15 14 13 13 12 12 13 13 14 15 15 15 15 13 12 12 12 12 12 10 8 6 5 4 2 0 0 1 2 3 3 1 0 1 2 3 5 6 7 8 8 9 13 16 16 15 13 10 8
3 2 4 1 1 2 3 3 2 3 5 6 6 6 5 8 5 9 4 7 9 5 5 4 3 5 11 8 10 17 22 27 28 29 27 25 25 23 22 21 21 20 19 18 18 17 16 15 15 13 13 12 12 12 12 13 13 14 14 13 13 12 11 10 10 10 11 9 6 6 5 3 3 1 1 1 1 1 2 1 1 0 1 3 5 6 7 8 7 7 11 14 15 15 13 10 9
2 3 2 1 2 3 3 3 3 3 6 6 9 7 6 8 6 6 7 9 12 8 5 4 4 6 10 9 19 27 27 29 31 31 27 25 24 22 21 20 20 19 18 18 16 16 15 15 14 13 12 11 12 12 12 13 12 12 13 12 12 10 9 8 9 9 9 8 6 6 5 4 3 2 2 2 2 2 1 1 2 1 0 2 4 5 6 7 7 6 7 12 15 15 13 11 9
2 3 2 2 3 4 4 5 5 3 6 6 8 8 3 9 7 5 9 10 10 12 9 9 12 11 12 19 28 29 28 30 30 28 24 21 20 19 19 19 19 17 17 16 15 15 15 14 13 13 12 11 11 12 12 12 11 11 12 12 12 10 8 7 8 9 8 7 6 5 4 3 2 1 0 0 1 1 1 2 3 3 1 1 2 4 5 6 6 5 4 8 13 15 13 11 9
3 3 2 4 5 4 5 5 5 3 6 7 6 7 3 8 10 5 7 9 10 15 10 11 14 12 14 19 25 25 26 26 25 25 22 19 18 17 17 17 18 17 16 15 15 15 14 14 13 12 12 11 11 12 13 12 11 11 12 12 11 10 8 7 8 8 7 6 6 4 3 2 1 1 2 2 0 1 1 2 3 4 3 2 1 2 3 4 5 4 3 5 11 14 13 11 9
3 3 2 6 5 5 6 7 7 5 5 7 8 4 4 5 6 5 9 11 10 14 12 13 14 12 13 13 17 20 21 19 21 22 20 18 17 17 18 18 18 18 17 15 16 16 14 14 13 12 12 11 11 12 13 12 11 11 12 12 10 10 9 8 8 7 6 6 6 4 3 2 1 1 1 2 2 1 1 2 3 4 5 5 3 2 1 2 3 3 3 2 8 12 12 10 9
2 4 5 7 3 5 8 6 7 6 4 4 8 1 4 3 3 10 16 13 6 9 13 15 17 16 16 13 14 17 16 16 17 19 19 18 16 17 18 17 18 18 17 15 16 17 15 14 13 12 11 11 11 12 12 11 11 12 12 11 10 9 8 8 7 6 6 5 5 4 3 3 2 2 1 2 3 2 1 1 3 4 6 7 6 4 2 1 1 2 2 1 5 10 11 9 8
1 3 6 7 3 5 9 4 4 4 2 2 4 0 4 1 3 8 14 13 7 8 11 15 18 18 17 15 14 14 13 13 14 16 18 18 17 17 17 17 17 17 17 16 17 17 15 13 12 12 11 11 11 11 11 10 10 10 11 11 10 9 8 7 7 6 5 5 5 4 4 4 4 4 4 4 3 3 3 3 3 4 5 7 8 7 5 3 2 0 1 1 3 8 10 8 7
2 4 5 6 6 6 9 6 4 2 3 2 2 4 5 7 5 1 4 9 10 12 14 15 17 18 19 16 14 13 11 11 13 15 18 19 19 19 20 19 18 18 16 16 17 16 14 13 12 11 11 10 10 10 10 10 9 9 9 9 9 9 8 8 7 6 6 6 5 5 5 6 6 6 7 6 5 5 4 4 4 6 6 6 8 9 8 6 4 3 1 1 3 5 8 7 7
2 4 6 6 7 8 10 9 7 4 2 5 3 4 8 8 5 3 7 10 14 17 16 15 16 18 19 15 13 12 11 11 12 14 17 19 20 21 21 20 20 18 16 16 16 16 15 13 12 11 10 9 8 9 10 9 9 9 9 8 8 8 8 7 7 7 7 7 7 7 7 8 9 9 8 8 8 7 6 6 5 6 7 7 7 8 10 9 7 6 4 3 3 4 6 7 8
3 5 6 5 6 8 9 8 8 6 4 4 4 8 7 8 8 8 10 13 14 15 15 14 15 16 15 13 12 11 10 9 11 13 14 16 19 20 20 20 19 18 16 16 16 16 16 14 13 10 9 8 7 9 10 9 8 8 8 7 6 6 6 6 6 7 7 8 8 9 10 10 11 11 10 9 9 9 9 8 7 6 7 7 8 7 7 9 9 9 8 7 6 5 6 7 9
5 6 5 5 7 9 7 7 8 4 2 3 11 11 10 10 11 8 6 6 13 16 15 14 15 14 12 11 10 9 8 9 11 14 14 15 17 17 18 18 18 17 15 14 14 16 16 15 13 10 9 8 7 8 8 8 7 7 6 5 5 5 5 5 6 7 8 9 9 10 11 12 12 12 12 10 10 10 10 10 10 9 8 8 9 9 8 8 9 10 10 10 9 9 9 10 11
5 4 5 7 8 10 6 7 8 2 1 5 13 12 10 6 6 6 6 3 10 16 15 14 14 13 12 10 8 8 7 8 12 15 16 15 15 15 16 16 16 16 14 13 13 14 15 14 13 11 10 9 8 7 8 8 7 7 6 5 6 6 6 7 8 9 9 9 9 10 11 11 11 12 13 12 11 11 10 11 11 11 10 9 9 10 10 10 10 10 11 12 12 13 13 12 13
3 2 5 7 6 8 7 7 7 2 1 6 15 11 6 2 5 12 10 6 9 15 15 13 13 11 11 10 7 6 7 10 13 14 14 13 12 13 13 14 15 15 14 13 12 13 13 12 12 12 11 11 10 9 8 8 8 8 8 7 7 8 9 9 9 9 10 10 10 10 10 10 10 11 12 12 12 11 11 11 12 12 12 11 10 10 11 12 13 12 12 13 14 15 15 15 14
4 3 3 7 6 4 9 8 4 3 1 6 14 8 3 2 8 15 15 13 10 13 15 13 12 11 10 10 8 6 7 11 12 11 12 12 13 13 12 13 15 15 13 13 11 11 11 11 11 11 11 10 10 10 10 9 9 9 8 8 8 9 10 10 9 9 9 9 8 8 9 10 11 11 10 10 10 11 11 11 11 12 12 12 12 11 11 12 13 14 14 15 16 16 18 18 17
4 2 1 4 5 4 8 5 2 3 3 6 9 5 2 2 5 8 10 15 14 12 14 13 11 10 10 10 9 7 7 9 10 12 13 13 14 13 13 14 16 15 13 12 10 10 10 10 9 9 9 9 9 9 9 9 9 9 8 7 7 8 9 8 8 8 8 8 8 8 9 10 11 10 9 10 10 11 11 10 11 11 11 12 12 13 13 13 13 14 15 15 16 17 19 20 20
2 2 1 1 2 4 9 4 0 3 1 2 7 4 3 2 4 3 5 10 16 16 14 13 10 10 11 10 9 7 7 10 12 15 15 13 14 14 14 14 15 15 14 12 11 10 9 8 8 9 9 8 8 8 8 8 8 8 7 6 7 8 8 7 7 7 7 8 9 9 10 11 11 11 10 10 10 10 9 9 9 9 10 10 11 12 13 14 14 14 15 15 16 17 19 20 21
2 0 3 2 3 4 8 4 3 5 1 5 7 3 2 2 0 3 4 6 13 17 14 13 12 12 13 10 10 7 7 12 14 15 14 13 13 13 14 14 14 15 14 13 11 9 8 7 7 8 8 7 7 7 7 8 8 7 6 6 6 7 8 7 7 8 8 9 9 10 11 11 12 12 11 10 9 8 9 9 8 8 9 9 10 11 12 14 15 15 16 16 17 17 18 19 20
3 1 2 1 3 3 4 4 3 2 2 7 6 4 3 3 5 6 6 8 10 14 12 13 13 12 13 11 10 7 7 10 11 13 14 13 13 13 14 14 14 14 12 12 11 9 9 8 7 7 8 7 7 7 7 8 7 7 7 6 6 7 7 8 8 9 9 9 10 10 10 11 12 12 11 9 8 8 9 9 9 9 9 10 10 10 12 13 14 15 15 15 17 17 17 18 18
3 1 2 2 3 3 1 3 4 5 5 4 4 4 4 7 11 10 11 12 11 12 12 12 12 11 12 12 10 8 8 8 8 11 13 13 15 15 15 15 15 13 11 10 9 9 8 8 7 7 7 7 7 7 7 7 8 7 7 7 7 8 7 8 8 9 10 11 12 10 9 10 11 11 10 9 9 10 11 11 10 10 11 11 11 12 13 13 13 14 15 15 15 16 18 17 17
3 2 1 2 2 3 3 3 2 5 7 3 3 5 5 10 11 8 10 12 10 11 13 12 12 13 12 11 10 9 9 9 9 11 13 15 17 18 17 17 16 14 11 10 8 7 7 6 5 4 3 4 4 5 6 6 6 7 6 6 7 8 8 8 8 9 10 10 10 8 7 7 8 8 9 9 10 12 12 11 11 12 13 12 12 14 14 14 14 14 15 16 16 16 17 17 18
7 5 4 4 3 2 4 3 0 7 8 5 4 7 9 10 6 4 4 3 3 3 10 11 9 10 10 10 9 9 10 10 12 14 15 17 18 19 19 19 19 16 13 11 10 9 8 7 6 4 2 1 1 1 2 3 4 4 5 5 6 7 7 7 8 9 8 8 8 7 6 7 6 6 7 9 10 11 11 11 12 14 15 14 14 15 15 16 16 16 17 16 17 17 17 18 17
6 5 3 1 2 3 3 1 1 7 8 6 4 9 9 8 5 6 7 8 5 2 6 9 8 8 8 10 11 10 9 9 15 17 17 19 19 19 21 20 20 18 16 14 13 13 13 12 11 9 7 4 3 3 2 2 4 5 5 6 7 7 8 8 8 9 8 9 8 6 7 7 6 5 5 7 8 9 10 12 14 15 16 16 16 17 17 17 17 17 17 17 18 18 19 18 16
4 5 3 3 0 4 2 3 1 3 8 2 4 11 9 7 7 7 9 9 2 2 3 6 8 10 9 11 12 10 7 7 14 16 16 19 19 19 20 20 21 20 19 18 17 16 16 16 15 13 11 8 7 6 5 5 5 6 7 7 7 8 9 10 10 10 10 9 9 7 8 8 5 4 3 4 6 8 10 12 14 15 16 16 16 17 17 17 17 17 17 19 19 18 19 19 17
3 3 4 1 2 2 3 5 4 4 7 5 6 9 8 7 7 7 9 9 3 1 4 4 7 10 9 9 9 9 8 8 11 12 13 18 18 19 19 19 20 19 19 19 18 17 17 17 16 14 13 12 10 9 8 7 7 7 7 6 7 8 10 12 12 13 13 12 12 11 11 10 8 6 5 4 5 6 8 10 12 13 14 15 15 15 15 16 16 16 17 18 18 18 19 20 19
4 4 4 2 3 1 2 4 6 6 5 9 9 6 5 6 7 6 6 7 5 4 6 6 6 8 9 8 7 8 9 10 11 10 11 15 17 18 18 19 19 18 19 18 17 16 15 15 14 14 13 13 12 11 10 8 6 6 7 6 7 8 9 10 11 13 15 14 14 14 14 13 12 10 8 7 7 7 7 9 10 11 12 12 13 15 16 17 17 17 17 16 17 18 18 19 19
2 4 5 4 2 3 4 3 6 9 7 10 11 5 1 3 4 3 4 6 6 7 8 8 7 9 8 7 8 6 6 9 11 10 9 11 15 17 17 19 19 19 19 18 17 16 14 13 12 11 11 11 11 11 10 8 6 6 6 6 8 9 10 12 13 15 16 15 16 16 16 16 15 13 12 11 10 10 10 10 11 11 11 12 13 15 17 18 18 18 18 17 17 18 18 19 19
2 4 6 7 5 6 8 8 7 7 3 4 6 3 2 1 1 3 3 4 6 7 8 8 8 8 7 7 8 7 6 9 10 10 9 9 13 17 18 19 19 18 18 17 17 16 15 13 11 10 10 10 11 11 10 9 8 8 8 9 11 12 13 14 15 16 16 16 16 15 15 16 16 14 14 13 12 12 11 12 12 12 13 13 14 16 16 17 18 18 18 18 18 19 20 20 20
2 5 8 9 8 8 9 8 6 4 3 7 5 2 1 1 2 4 2 4 6 8 7 7 7 6 5 6 7 7 7 8 10 9 8 9 13 14 16 18 19 17 16 15 15 16 15 13 12 11 11 10 10 10 9 8 9 9 10 11 12 13 14 14 13 13 14 14 14 14 14 14 15 14 14 13 13 13 12 12 13 13 13 14 14 14 15 16 17 18 18 18 19 19 20 19 21
3 6 9 10 8 9 9 8 6 3 2 4 4 1 3 3 4 5 3 4 6 7 7 7 6 5 6 7 6 7 6 8 10 7 6 10 12 12 13 17 17 16 15 15 14 14 13 12 12 12 12 12 11 10 8 8 8 8 9 9 10 12 13 13 12 12 12 13 13 13 14 13 14 14 14 14 13 13 13 12 12 12 12 13 13 14 15 16 17 18 18 19 20 19 20 21 22
5 6 9 10 10 10 9 7 5 4 4 3 4 2 3 3 3 6 4 4 6 7 8 8 7 7 8 8 8 7 6 8 10 7 7 12 12 11 14 17 16 14 13 13 13 13 12 11 11 11 13 13 11 10 9 8 8 8 8 8 8 9 10 10 11 12 13 14 15 15 15 14 15 14 14 14 14 13 13 13 13 13 14 13 13 14 16 17 18 19 19 19 20 20 20 21 23
5 5 4 4 5 4 5 7 4 4 4 6 9 6 4 2 2 6 5 6 9 8 6 8 8 8 9 9 9 8 7 8 9 7 9 13 12 12 14 15 13 11 11 12 12 12 12 11 12 13 14 13 11 10 9 8 8 8 9 9 8 9 9 9 11 12 13 15 16 16 16 16 17 16 15 15 15 14 13 14 14 14 14 14 14 15 16 17 18 19 20 20 21 22 22 22 23
4 4 1 1 0 3 3 2 4 5 3 6 12 10 5 2 4 6 5 4 10 11 6 7 9 9 9 9 9 8 7 8 8 7 9 14 12 12 13 12 10 10 11 13 13 12 12 12 14 16 16 14 12 10 8 8 8 8 9 9 10 10 10 10 11 13 13 14 14 15 15 16 17 17 16 16 16 15 14 14 14 14 14 15 15 16 16 17 18 19 20 20 21 22 23 24 25
4 3 3 2 3 3 3 3 3 4 5 5 10 9 4 4 5 6 5 1 9 14 9 10 11 10 10 9 8 7 7 8 7 6 8 11 11 11 12 11 9 9 11 13 13 13 13 13 14 15 15 13 13 11 9 8 9 9 10 11 11 11 11 12 13 13 13 13 12 12 12 13 14 15 15 17 18 17 16 15 16 16 16 16 17 18 18 18 18 19 20 20 21 22 24 25 26
5 3 5 4 1 1 1 1 1 4 5 4 8 10 3 5 4 4 4 4 7 10 8 9 11 10 9 8 7 6 7 8 7 6 6 7 8 9 9 10 9 9 11 14 15 14 13 11 11 12 12 12 13 14 12 11 11 12 12 13 13 13 12 12 13 13 12 12 11 10 10 11 11 12 14 17 18 17 17 17 17 18 18 18 18 19 19 20 20 20 20 21 21 22 23 25 26
7 6 6 5 3 3 4 3 1 3 4 4 4 11 5 2 1 3 3 6 7 8 8 8 10 10 9 8 7 6 7 7 6 6 6 6 8 9 9 9 8 9 11 14 16 15 13 11 11 12 12 11 13 16 16 16 15 14 14 14 14 13 13 13 12 12 12 11 12 11 11 11 12 13 14 15 15 15 16 17 17 18 18 19 19 19 19 19 19 19 19 21 22 22 23 24 26
6 5 6 5 5 5 3 3 2 3 3 3 2 6 3 1 1 2 2 7 9 10 9 9 9 8 8 7 7 7 6 6 5 5 6 7 9 9 9 9 9 10 13 14 16 15 12 12 13 12 12 11 13 15 17 18 17 16 15 14 15 14 14 13 12 12 11 12 13 12 12 12 12 13 12 12 13 13 15 18 18 18 18 19 19 19 19 19 18 18 17 18 20 21 23 24 25
4 4 5 4 6 5 1 3 6 4 3 1 1 1 0 1 2 3 7 10 11 11 9 10 9 8 8 7 7 7 6 6 5 5 6 7 9 9 9 10 11 13 14 14 16 15 14 15 15 13 12 11 12 13 14 16 17 17 16 16 17 17 16 16 15 15 15 14 14 13 13 13 12 12 12 12 12 12 15 19 18 18 18 18 18 19 20 20 21 20 20 20 19 20 21 23 25
3 4 6 5 4 6 2 2 2 3 3 1 0 2 2 2 2 5 10 12 13 12 10 10 10 9 10 7 7 7 6 6 5 4 5 7 8 9 11 13 14 14 14 15 17 17 18 17 15 13 11 10 11 13 14 16 17 18 18 17 18 18 19 19 19 19 19 18 18 17 16 15 14 14 13 13 12 12 17 20 19 19 19 19 19 19 20 21 22 22 22 22 22 21 22 22 24
5 5 7 3 3 3 2 2 2 3 2 1 1 3 4 3 2 5 11 12 13 13 11 11 10 10 10 8 7 7 6 6 5 5 7 8 10 12 14 15 15 15 15 17 20 21 20 18 16 14 13 13 14 15 16 17 18 19 18 17 17 18 20 20 21 21 22 22 22 21 21 20 18 17 15 14 13 14 19 22 22 23 23 22 22 23 23 23 23 23 23 23 23 23 24 23 22
4 6 7 5 3 3 1 3 3 2 1 1 1 3 4 3 4 9 13 13 14 14 13 13 12 10 10 9 9 8 7 6 6 6 6 8 11 13 16 17 17 17 19 20 22 22 22 20 18 18 18 17 17 17 17 17 18 18 19 18 18 19 20 21 21 23 24 24 24 23 23 22 22 20 18 17 16 17 22 25 26 26 26 26 26 26 26 26 25 24 24 23 23 24 25 25 24
2 5 5 3 3 4 3 2 3 4 3 1 2 4 4 4 6 11 14 15 16 16 14 13 12 11 10 9 9 8 7 6 6 7 6 8 12 13 17 19 18 19 21 22 22 22 22 21 20 20 20 19 18 18 18 18 17 18 19 19 20 20 21 21 21 23 25 26 25 24 24 22 22 22 20 19 18 20 24 27 28 29 29 29 29 28 28 28 26 25 24 24 23 23 24 25 25
4 5 5 3 2 2 2 1 2 5 5 3 3 3 4 3 7 13 15 15 16 16 14 13 12 12 11 10 9 8 7 7 7 7 7 9 12 15 17 19 19 20 22 23 23 22 21 20 20 20 20 19 19 19 18 17 17 18 20 21 20 20 21 21 21 23 25 26 26 26 25 24 24 24 22 20 20 20 23 26 29 31 32 32 32 31 31 31 29 26 25 25 25 25 25 26 26
7 6 6 5 4 4 3 2 1 3 4 5 4 3 5 3 4 11 13 13 13 13 14 13 12 12 11 10 10 9 7 8 8 7 9 10 12 15 17 19 20 21 22 23 22 21 21 20 20 19 19 19 19 18 18 17 17 19 20 20 19 19 20 20 21 21 22 24 25 26 26 25 26 26 24 22 21 20 21 24 28 31 32 33 33 34 33 33 32 30 28 27 27 28 28 27 27
Wind_Direction
340 342 336 321 331 335 345 54 61 327 91 223 271 267 256 235 254 277 282 285 300 358 334 78 66 61 93 117 127 100 55 40 182 160 173 139 149 163 171 165 159 153 150 150 151 153 154 152 154 157 158 157 150 144 138 129 125 131 131 126 124 120 116 114 115 115 115 114 113 113 113 114 114 114 113 112 112 111 111 108 107 105 104 103 102 102 102 102 101 106 112 112 109 108 109 107 105
345 343 338 318 340 356 290 73 95 308 70 267 266 208 259 315 307 268 244 217 192 141 104 92 80 76 97 118 129 101 55 36 51 103 101 123 135 158 166 162 160 153 149 151 152 155 155 153 155 158 159 157 153 148 142 133 128 132 132 129 127 122 117 116 116 116 116 115 117 116 116 116 115 115 114 114 112 111 109 108 108 106 105 103 103 103 102 102 102 109 115 114 109 107 107 106 105
347 344 348 322 353 40 62 41 108 180 153 228 261 239 274 317 279 281 240 169 144 144 112 89 78 62 83 89 65 57 70 40 55 76 105 127 135 157 160 158 156 152 149 152 153 155 155 153 156 158 158 158 156 151 144 135 130 133 134 131 128 122 119 119 117 118 117 117 118 118 118 117 116 116 115 114 112 110 108 108 108 106 104 103 102 101 101 101 104 113 120 116 111 111 111 111 111
349 348 359 38 36 32 61 50 143 142 177 217 259 258 259 318 303 315 204 140 145 154 108 86 71 20 67 86 76 68 87 83 61 77 118 147 158 160 158 155 153 151 150 153 154 154 153 153 157 157 158 158 156 152 144 136 132 134 135 133 128 125 123 121 120 119 119 120 119 119 119 118 119 118 117 116 113 111 110 109 109 109 107 106 105 106 106 102 103 120 130 122 113 117 116 116 114
349 354 7 69 88 30 97 104 125 147 205 199 220 262 223 74 2 348 34 107 155 180 89 121 95 51 74 88 131 92 108 124 91 88 130 162 163 159 157 154 150 149 150 153 153 152 151 154 158 158 157 158 155 151 145 138 134 135 134 133 128 127 126 124 123 121 122 123 122 121 121 121 123 121 119 117 115 115 115 114 114 115 114 116 117 119 118 109 104 119 136 138 129 125 122 121 116
352 16 41 61 97 176 115 183 193 209 229 174 205 265 180 94 7 23 349 6 42 21 6 110 111 117 89 60 47 99 149 136 122 146 155 160 160 157 154 150 147 147 150 152 153 150 151 157 159 157 156 157 156 152 147 140 135 133 131 131 129 129 128 127 125 124 125 125 125 124 124 126 126 123 120 117 115 116 117 119 119 118 116 118 119 121 118 117 117 121 134 146 151 149 147 143 133
3 24 35 57 30 36 119 203 217 233 245 189 209 273 243 112 355 35 350 347 31 19 42 95 118 111 83 76 61 86 146 139 143 164 164 157 155 153 150 147 144 145 146 149 151 149 152 158 156 155 157 157 155 151 146 140 136 133 133 132 131 132 131 131 130 129 129 127 128 126 127 130 128 125 121 117 115 113 111 115 121 120 116 112 108 106 107 115 122 124 129 137 150 157 159 157 144
21 42 44 98 56 14 124 235 243 221 247 241 238 271 271 135 143 325 304 307 14 351 97 121 128 92 62 83 82 82 123 144 150 158 155 148 149 150 151 146 139 140 144 148 148 146 152 156 155 157 157 157 152 146 142 141 141 139 140 135 132 137 137 138 137 136 134 132 132 130 132 132 129 125 122 119 113 108 104 108 116 119 117 109 100 96 99 109 117 124 126 125 137 148 153 150 136
34 58 47 103 140 329 192 272 262 238 255 265 265 266 268 179 148 212 244 243 74 259 141 188 161 94 91 84 93 91 113 147 146 145 143 142 148 149 148 141 135 138 143 146 145 147 154 155 155 155 154 151 145 143 142 143 144 142 142 138 139 145 145 142 140 141 140 138 137 135 136 134 131 129 126 121 111 102 100 105 111 114 113 104 96 88 90 103 117 128 128 127 135 144 147 139 128
27 33 131 106 125 223 280 267 258 262 251 252 258 258 266 235 161 186 223 174 128 259 88 92 89 108 114 97 97 109 135 146 137 132 138 142 145 144 140 137 137 138 141 144 146 149 152 153 153 151 149 147 147 147 145 146 146 145 145 145 150 154 151 147 146 148 145 143 145 142 141 140 139 136 132 125 114 106 104 107 111 114 112 103 92 80 82 98 117 129 129 133 141 145 144 134 124
28 346 103 98 97 202 243 258 269 269 265 275 271 258 255 238 160 176 182 131 140 198 124 89 92 110 107 100 92 130 145 142 131 131 141 141 138 139 138 138 139 136 139 144 147 147 147 151 152 149 151 153 155 151 149 151 151 153 155 155 159 160 155 154 155 153 147 146 148 147 148 148 146 143 137 130 120 114 110 111 114 117 117 104 89 77 79 91 111 127 132 139 147 148 142 132 121
94 323 69 102 162 199 214 239 273 276 283 290 271 267 236 183 145 159 147 130 143 168 171 98 122 123 101 108 114 139 146 136 130 133 138 137 136 140 140 138 138 139 142 145 147 145 147 151 151 152 155 157 156 152 154 157 158 163 163 160 164 165 161 160 161 158 151 148 151 151 153 154 153 151 144 132 116 102 103 114 119 121 121 105 85 76 75 84 105 126 138 146 152 151 143 131 118
134 164 91 135 196 180 206 226 270 293 296 272 250 274 241 150 160 166 142 135 153 175 234 125 143 129 101 121 128 144 141 131 131 132 136 135 136 138 137 137 139 142 144 147 147 146 151 152 152 154 153 154 154 153 157 160 164 168 165 164 167 168 164 161 163 162 156 154 156 155 153 155 158 159 147 118 85 56 70 111 122 118 120 106 84 74 71 80 101 128 144 153 158 154 145 134 119
158 162 117 182 236 161 205 237 270 281 281 267 256 284 289 202 175 156 134 136 165 182 122 122 134 106 110 133 130 157 129 129 132 131 135 131 132 134 134 138 140 144 146 149 149 149 153 154 156 155 152 153 153 154 158 162 167 170 168 169 172 173 169 165 166 166 161 160 162 159 157 157 156 151 93 58 32 17 27 83 111 96 101 96 82 73 70 78 97 128 148 159 163 158 150 140 122
172 152 101 144 303 284 224 216 233 202 264 283 287 292 338 17 151 140 137 138 125 127 111 128 135 99 149 167 150 164 134 131 131 130 130 124 129 132 135 140 141 146 149 150 150 152 154 154 158 156 156 155 154 157 159 164 169 172 172 173 177 177 175 173 173 171 168 168 167 166 167 164 157 105 17 360 358 353 1 28 128 69 65 69 71 70 69 75 92 125 152 163 166 163 156 145 124
159 103 72 125 245 260 223 207 205 193 262 292 311 304 49 37 78 121 132 120 117 126 106 155 216 135 167 172 140 143 133 131 129 128 123 119 125 128 133 138 142 147 148 150 152 155 155 156 160 158 159 157 158 159 162 167 168 172 173 174 178 179 181 181 178 175 174 176 177 177 181 182 183 180 194 253 325 310 333 12 205 79 42 47 60 65 65 70 84 115 151 168 171 168 163 151 128
86 86 73 281 212 219 214 201 181 187 264 303 341 343 92 69 48 77 57 79 117 115 60 50 26 112 140 125 127 132 131 130 128 125 119 118 124 125 131 137 142 144 145 150 154 155 155 158 161 160 162 160 161 162 163 166 167 171 170 169 170 168 168 168 172 172 175 180 182 185 193 202 207 215 223 220 213 241 268 169 207 224 349 26 46 56 60 64 74 96 143 170 177 174 169 156 134
86 104 167 233 212 221 195 188 202 206 280 311 348 342 84 112 104 100 76 69 92 87 65 66 62 70 92 110 125 129 131 131 128 126 121 124 128 130 136 141 144 144 146 152 155 156 158 161 165 166 166 164 164 163 159 157 163 169 166 165 162 150 143 150 159 168 177 179 184 194 200 215 238 235 242 180 205 235 235 189 206 220 244 332 23 44 53 56 63 76 121 167 181 181 176 162 144
143 139 166 227 216 223 200 211 245 250 287 312 326 309 284 138 128 130 108 103 102 92 82 87 88 87 94 112 124 130 135 134 132 130 129 133 136 139 141 144 146 148 152 155 158 161 162 165 171 172 169 168 170 166 160 157 163 169 167 167 161 150 150 161 159 165 178 176 185 195 186 186 199 125 69 44 42 159 208 214 211 222 235 254 296 17 50 53 56 58 77 161 182 185 182 169 153
179 164 201 243 223 250 252 242 260 264 279 309 314 292 230 186 135 127 122 119 119 118 122 118 116 124 122 125 128 134 135 131 134 133 133 137 140 144 145 149 151 153 158 159 162 165 169 171 174 175 173 174 176 171 167 167 170 174 175 171 168 161 165 177 172 174 182 184 195 199 185 180 180 162 74 360 345 52 192 223 228 236 241 246 256 276 19 54 56 53 40 136 184 186 184 176 163
192 166 205 242 207 257 265 242 254 262 237 281 314 339 171 235 120 132 128 121 131 143 147 140 139 143 140 138 136 138 132 128 136 136 136 139 143 147 147 150 152 157 159 160 164 167 171 174 174 173 175 179 180 177 171 173 175 177 181 179 178 174 176 183 183 186 193 202 213 220 224 233 245 253 278 311 329 332 311 255 248 251 249 252 253 262 275 309 39 62 43 53 184 186 183 179 171
192 215 219 237 210 254 272 257 236 244 244 322 340 139 170 153 108 143 138 138 155 154 151 141 140 145 142 140 139 138 132 133 141 141 141 142 145 147 148 149 152 158 160 162 166 169 172 174 176 173 176 183 185 183 174 174 179 180 184 187 189 188 189 195 199 203 211 221 232 245 252 268 274 280 294 301 306 302 314 318 294 277 258 253 252 255 261 264 293 360 110 107 175 184 181 183 182
199 266 251 243 231 245 274 282 264 282 343 323 244 193 150 117 108 75 103 129 133 133 142 137 134 137 136 135 136 139 139 146 151 149 147 146 148 152 153 153 155 159 160 166 169 172 177 178 182 180 180 185 187 187 178 176 186 189 189 193 196 200 203 209 217 223 231 239 250 263 272 283 285 291 299 302 295 283 288 297 300 303 293 271 256 251 253 256 265 271 242 193 180 186 190 197 206
173 261 275 263 244 239 259 272 281 296 272 253 238 132 133 134 127 88 88 110 119 126 136 134 131 133 133 135 139 143 145 147 147 145 147 148 152 157 157 155 156 159 159 166 172 177 184 185 187 188 187 189 189 185 180 181 190 197 199 200 201 208 215 218 229 237 242 250 263 274 280 285 290 296 296 298 294 287 283 275 275 295 306 304 284 262 252 253 259 264 262 253 240 220 216 220 231
202 236 264 270 258 248 259 271 278 281 240 225 79 88 122 124 104 102 108 115 118 121 125 126 127 129 131 136 141 143 139 132 127 128 138 146 152 155 156 156 156 159 162 167 175 182 188 192 193 195 194 193 192 185 181 183 190 201 206 207 212 223 227 230 238 244 250 258 269 281 287 288 291 293 292 292 291 290 289 283 277 278 290 301 304 293 265 255 259 266 269 269 280 282 265 253 254
213 219 255 272 276 267 269 274 269 275 251 114 82 86 110 110 93 68 27 90 117 118 120 125 126 127 131 135 139 135 126 122 121 123 130 141 150 153 155 156 156 160 167 170 175 183 190 195 198 200 203 203 197 189 188 193 200 209 213 214 227 241 250 259 260 259 264 269 277 284 291 293 290 286 284 286 285 286 285 283 283 281 282 288 296 301 293 278 269 272 276 276 286 297 297 288 280
214 215 258 256 270 275 275 276 272 324 305 130 107 114 130 125 99 88 309 295 121 120 121 126 126 127 129 127 124 119 113 115 121 125 129 138 146 148 152 155 156 163 172 174 177 184 192 199 203 205 209 212 210 204 205 215 227 231 234 237 241 254 270 279 279 275 272 276 283 283 287 293 290 282 278 277 277 279 279 280 281 282 285 287 288 290 292 293 288 282 280 280 284 289 295 296 293
272 298 303 281 281 278 270 273 275 20 319 143 120 120 119 61 123 144 175 181 129 123 123 124 125 124 122 115 107 105 104 110 118 123 126 131 139 143 147 150 156 164 172 180 187 190 196 205 210 212 213 217 220 223 226 232 243 248 250 253 259 269 278 283 285 283 279 280 284 281 281 285 287 285 279 274 274 280 285 286 284 285 289 292 290 285 283 286 288 286 281 279 279 281 285 286 286
310 336 325 306 343 306 263 263 265 99 156 155 119 100 51 76 147 152 150 141 130 124 123 122 122 121 116 112 108 105 100 103 106 105 110 118 129 138 137 144 156 160 167 180 192 194 200 209 214 219 219 222 225 230 239 243 250 253 252 257 267 274 277 279 279 280 283 284 285 286 283 283 285 287 285 281 283 290 294 294 294 294 297 296 295 292 284 280 279 279 276 275 276 278 280 281 282
313 320 148 302 4 326 269 271 301 109 160 171 124 109 263 2 102 135 137 136 134 127 126 125 124 121 116 116 114 106 95 95 93 95 109 123 134 141 137 144 158 162 168 177 185 190 198 205 213 223 222 226 230 234 243 247 251 251 251 260 270 278 282 279 275 278 287 291 290 293 294 292 288 288 291 290 291 295 297 302 307 308 307 304 302 298 292 284 277 273 272 272 272 275 277 279 281
322 302 38 28 111 274 285 304 157 153 192 113 103 124 206 46 53 104 138 148 141 136 133 128 125 121 119 119 114 106 92 89 85 90 104 120 133 143 143 148 159 162 164 166 173 180 186 196 210 219 220 226 232 235 241 241 246 250 256 267 276 287 292 290 292 299 303 305 302 299 299 297 292 290 289 290 291 295 300 308 315 318 313 307 301 296 291 288 284 278 275 275 276 277 279 280 283
14 360 323 349 161 256 300 306 182 168 316 27 76 127 167 76 200 151 128 179 155 137 133 127 126 125 125 122 112 107 93 88 81 84 91 100 113 130 139 147 155 158 160 161 170 175 179 193 207 217 219 221 223 227 235 237 242 252 267 277 284 295 300 302 308 309 307 309 308 303 298 293 288 287 286 289 297 304 313 317 318 319 313 305 297 291 290 290 292 289 283 282 283 284 286 287 287
355 106 230 256 172 226 306 296 280 134 66 11 47 144 161 114 206 192 143 188 170 133 125 123 124 125 125 122 115 111 103 95 82 77 78 87 100 114 126 137 144 151 158 163 170 174 180 192 203 218 224 225 227 229 232 237 245 258 274 281 287 296 298 300 304 304 304 305 306 303 297 288 282 284 286 290 303 312 318 319 317 315 306 298 295 296 298 298 296 293 288 285 286 288 289 289 290
316 28 200 232 183 176 248 278 320 35 68 16 36 123 146 149 178 181 156 175 173 136 125 122 121 125 126 125 122 117 110 107 94 82 78 85 98 105 112 120 127 133 140 151 164 175 184 191 199 216 231 241 241 237 235 242 254 262 273 282 288 297 301 302 305 305 306 307 307 303 296 292 285 284 286 290 304 311 311 312 311 306 299 296 301 306 307 302 296 292 290 290 292 291 290 289 290
189 192 155 226 184 148 190 225 273 46 58 64 87 87 105 143 165 163 156 172 170 143 129 123 123 126 129 127 123 116 110 112 110 97 85 88 96 99 102 106 109 113 117 124 134 151 166 170 174 193 228 256 249 241 242 250 262 265 275 292 299 311 317 316 318 316 315 316 316 313 308 309 301 290 284 289 300 306 308 308 302 297 297 301 303 304 303 300 297 295 295 297 299 295 292 291 289
170 179 149 171 168 186 213 236 180 99 73 32 81 104 122 145 148 79 73 71 59 112 118 119 122 121 119 114 112 102 99 109 112 102 91 90 93 95 98 100 101 103 107 110 111 117 122 123 122 116 123 120 88 233 260 277 292 295 305 317 321 327 329 328 331 332 334 338 336 333 334 332 323 307 295 298 301 302 305 303 297 295 299 300 297 297 298 299 299 298 297 297 297 295 292 291 291
149 128 111 186 159 247 244 119 192 118 86 359 40 99 114 130 115 77 69 52 20 323 117 114 111 108 107 105 105 96 92 103 103 98 94 93 91 94 98 102 104 100 101 107 104 101 100 101 100 92 91 98 83 62 27 1 343 336 342 350 348 349 354 349 345 347 351 354 350 350 355 348 334 323 315 315 313 308 306 300 295 296 298 297 295 295 295 295 297 296 294 292 292 292 291 292 295
131 114 83 352 122 247 289 80 231 104 89 49 87 93 89 103 112 108 113 112 124 245 98 97 106 107 103 104 106 101 101 106 97 93 95 94 91 94 96 98 102 97 93 100 99 95 94 92 89 83 81 83 73 59 47 32 12 355 351 357 359 7 17 14 13 15 16 17 19 23 21 16 12 7 343 327 326 319 310 299 296 296 296 296 293 292 293 296 297 293 290 291 291 289 289 293 295
128 117 110 350 271 241 340 29 20 47 94 132 125 98 81 88 97 96 116 128 135 3 44 64 104 106 102 107 110 111 114 104 93 91 93 93 91 90 89 87 92 93 90 95 96 92 89 85 80 77 74 73 66 58 51 36 18 0 353 2 17 33 36 32 35 34 32 35 38 36 31 29 29 23 13 1 352 336 318 306 301 298 297 297 297 297 301 304 302 297 293 293 291 287 288 291 290
124 133 139 217 262 119 36 356 17 37 95 139 131 98 78 88 85 74 99 121 111 83 70 59 77 90 97 105 101 113 119 102 95 96 91 91 91 86 82 81 84 87 86 87 91 89 83 77 73 70 67 62 57 53 50 41 23 13 14 23 32 39 34 26 31 34 34 37 41 41 37 35 34 28 26 26 19 3 342 326 317 312 307 305 305 305 305 305 305 302 300 297 291 285 284 287 287
167 172 167 177 206 102 121 120 73 58 78 127 121 83 10 104 113 111 109 120 116 102 88 71 69 78 86 90 85 94 107 100 100 98 90 93 97 92 84 83 81 80 80 80 85 85 80 73 66 63 59 54 49 44 41 35 19 13 11 6 8 15 15 13 16 24 31 36 40 43 42 42 44 42 40 38 30 20 5 347 335 328 323 317 313 311 308 308 307 304 300 297 291 283 279 281 285
236 216 188 167 140 112 123 124 97 75 85 165 133 100 285 345 112 177 148 135 126 110 99 87 86 87 87 86 88 90 89 94 95 90 97 103 100 97 92 88 84 77 77 81 84 83 78 72 63 58 54 46 42 36 31 30 27 25 22 18 19 23 26 26 25 25 27 32 35 39 41 42 42 43 44 42 34 26 17 5 357 347 337 330 322 317 315 314 310 307 304 298 292 286 282 280 282
240 234 183 160 136 131 141 129 109 113 177 212 208 159 185 303 278 235 203 140 128 114 106 103 99 97 96 93 98 104 96 94 92 88 103 103 91 92 91 90 89 84 83 85 84 80 75 69 63 58 55 46 39 33 27 30 37 41 41 40 38 38 34 29 26 23 21 24 28 30 33 33 32 32 35 38 35 29 25 17 9 1 350 342 333 325 324 324 320 317 313 304 299 294 287 280 279
230 230 167 153 151 162 168 143 131 159 174 206 238 161 143 208 223 201 191 144 132 129 125 122 119 115 109 105 104 104 101 98 96 93 94 88 84 88 90 89 90 89 88 84 78 76 71 64 59 53 51 47 38 33 31 35 44 48 50 46 40 39 35 24 16 9 6 7 12 16 20 23 25 24 24 26 27 25 23 19 13 8 358 346 336 329 327 328 326 322 319 312 306 300 293 285 280
226 199 147 154 176 183 176 157 148 147 133 186 242 189 146 209 175 145 170 177 163 165 153 139 133 132 122 114 110 104 104 97 92 94 90 86 86 90 93 93 92 91 88 83 77 77 70 58 50 44 44 41 33 30 31 41 53 59 62 58 49 43 35 22 10 1 355 353 354 357 359 3 10 14 15 16 16 16 17 16 13 10 5 355 344 336 332 330 327 324 322 315 308 301 296 289 281
219 178 130 137 170 170 154 157 141 119 150 200 207 186 145 207 189 147 169 202 188 178 157 146 143 141 131 122 122 114 103 95 91 96 95 93 96 96 97 98 98 100 96 89 85 80 69 58 53 49 44 39 34 33 34 41 50 57 65 67 59 49 36 21 9 1 354 348 344 344 344 346 353 359 2 6 8 8 8 9 9 6 3 359 352 345 338 334 331 327 325 318 309 301 293 288 282
171 158 223 305 54 56 71 117 106 119 212 215 191 185 157 170 223 183 185 207 178 166 150 153 152 145 138 129 127 119 103 99 100 104 98 96 99 97 98 100 101 106 99 91 86 78 70 63 60 56 49 40 34 34 40 50 55 60 67 69 62 52 41 29 19 11 3 354 346 340 339 341 347 350 351 355 360 1 358 359 360 355 350 347 344 341 336 333 329 323 320 317 310 303 296 289 283
157 130 154 229 309 16 35 10 72 153 241 239 181 169 152 193 226 202 192 134 158 164 163 161 155 145 141 131 124 119 108 108 111 114 106 102 102 98 100 103 105 103 94 90 87 79 73 67 62 60 55 47 41 38 44 59 68 71 72 70 65 57 47 39 33 28 19 10 360 347 339 339 341 343 348 353 355 355 352 349 349 348 346 343 337 333 329 325 322 315 311 310 308 305 299 292 284
165 137 135 157 256 299 207 257 187 199 247 258 173 152 166 230 237 226 195 140 146 154 148 152 148 137 132 123 118 116 111 117 120 117 111 108 111 112 112 112 106 92 91 99 96 84 79 76 72 73 68 60 53 50 53 62 69 71 72 71 65 59 52 46 41 37 30 23 21 15 7 2 358 358 4 5 359 358 359 356 355 355 354 349 342 335 331 327 324 318 312 309 307 304 300 294 289
166 163 159 163 161 170 211 220 312 238 247 305 179 161 185 243 283 290 210 148 129 120 117 133 134 126 125 118 115 111 108 117 119 116 116 118 123 126 126 120 105 88 97 110 102 89 89 93 93 90 82 71 65 63 63 64 65 66 67 66 62 58 54 50 47 40 33 29 33 37 32 26 23 20 19 16 10 11 14 11 6 2 359 355 349 344 340 336 330 324 317 313 311 309 305 299 293
169 158 143 161 174 163 201 201 180 210 207 331 314 171 196 215 115 323 115 116 109 112 118 124 122 122 124 120 117 113 110 115 115 118 121 122 128 134 130 115 96 93 104 108 96 87 96 107 105 99 90 81 74 71 68 65 65 66 66 65 63 61 58 56 53 46 38 36 37 42 40 35 31 28 25 25 24 20 18 17 14 9 5 360 355 352 350 346 341 336 329 321 315 314 311 305 299
185 140 134 186 192 144 74 191 172 165 146 70 317 170 349 80 100 85 115 118 116 120 125 125 125 127 125 123 123 119 119 123 124 128 123 119 123 124 112 96 91 102 107 95 85 90 107 113 109 103 96 88 78 72 67 63 65 67 66 67 64 60 58 55 53 49 47 46 44 44 44 40 37 35 31 33 35 21 13 16 16 14 13 7 0 357 355 353 351 349 343 334 325 320 315 309 306
170 151 176 200 159 125 113 216 140 103 130 155 84 132 121 107 100 117 127 126 128 134 136 133 130 128 128 128 126 124 126 131 131 129 117 109 107 101 94 94 100 105 97 83 84 99 113 114 111 109 100 88 78 74 73 69 68 68 67 67 63 59 57 54 51 49 48 50 50 48 46 45 42 38 34 37 38 21 12 15 16 16 17 12 6 3 360 358 355 352 347 341 337 331 321 311 307
146 182 192 160 97 109 139 164 59 54 143 246 330 167 169 169 173 146 138 137 144 147 144 138 133 131 134 131 127 129 130 129 122 109 103 102 103 99 97 100 102 99 91 88 93 101 107 107 108 106 97 89 87 85 83 77 72 70 68 66 65 62 58 54 50 49 49 50 50 48 47 45 42 39 37 38 35 20 14 17 19 18 15 12 9 6 3 360 355 349 344 341 340 337 330 323 316
153 181 174 143 156 205 152 157 173 132 153 282 245 195 206 206 185 163 157 157 157 154 150 145 141 140 139 133 132 132 126 120 112 105 103 104 106 103 99 99 98 97 97 99 99 99 100 100 100 99 96 94 95 93 89 82 75 72 67 64 65 65 61 56 51 50 50 50 48 47 45 43 41 40 39 39 37 29 23 22 21 19 16 14 10 6 3 360 356 348 341 338 338 336 333 331 328
110 142 165 154 159 181 171 165 163 144 152 218 173 187 229 216 182 173 168 164 160 158 155 150 144 141 140 139 138 134 127 125 118 114 111 106 105 100 97 99 98 98 101 103 102 99 99 98 97 97 96 96 96 95 92 85 77 71 66 65 66 64 62 58 54 51 50 49 47 46 44 40 39 39 38 36 36 34 28 24 23 21 18 15 12 9 6 2 358 352 345 341 339 337 335 332 330
143 140 175 177 105 134 161 131 102 124 145 165 156 202 245 219 178 175 171 164 162 159 153 146 142 141 144 145 141 135 133 131 125 119 114 109 105 97 95 100 101 100 102 105 104 101 100 99 97 96 95 94 93 92 92 86 79 73 68 67 65 63 60 57 54 51 48 47 45 44 43 39 38 37 35 33 31 30 25 22 22 21 18 16 13 11 8 5 0 355 351 347 343 341 339 337 335
159 164 184 178 139 123 139 208 226 104 135 163 159 200 252 275 181 172 167 161 159 151 143 138 139 140 143 143 137 136 139 134 127 119 113 111 108 100 97 101 102 100 102 105 104 102 101 99 98 97 94 92 90 91 91 87 81 75 70 67 65 62 59 56 54 50 47 45 42 41 38 36 36 35 34 35 33 30 25 21 21 20 18 17 14 11 8 5 3 358 353 350 348 346 343 341 340
Height
771 771 770 770 769 769 771 772 787 793 793 803 796 791 781 769 770 768 769 765 763 763 758 758 755 756 761 768 778 782 784 784 786 790 791 785 780 783 784 784 786 786 788 789 791 793 794 796 796 798 799 800 801 802 803 803 804 804 805 806 806 807 807 808 808 808 808 808 809 809 809 809 810 810 811 812 812 813 813 814 814 814 815 815 815 815 816 816 817 817 818 818 819 819 819 819 819
770 771 770 771 769 771 777 777 795 803 800 808 796 787 778 768 771 769 769 766 765 763 757 757 757 761 763 766 772 777 783 783 781 781 781 781 782 784 784 784 785 786 788 789 791 793 794 795 797 798 799 800 801 802 803 804 805 805 806 806 807 807 808 809 809 810 810 810 810 810 810 810 811 811 812 813 813 814 814 815 815 815 816 816 816 816 817 817 818 818 819 820 820 820 820 820 819
770 771 770 771 771 773 779 782 799 809 806 809 794 781 775 771 770 766 764 761 761 759 756 756 759 765 766 770 773 779 787 784 781 780 780 782 782 783 785 785 786 787 788 789 791 793 795 796 797 798 799 801 802 803 804 805 805 806 807 807 808 808 809 810 810 811 811 811 811 811 811 811 812 812 813 814 815 815 815 816 816 816 817 817 817 817 818 818 818 819 820 821 821 821 821 821 821
771 771 771 770 774 778 784 791 800 806 806 806 793 776 772 772 768 766 761 757 758 756 757 759 765 766 766 777 778 781 789 785 783 781 782 782 781 782 784 786 787 788 790 791 792 793 796 797 798 799 801 802 803 804 805 806 806 807 807 808 809 809 810 811 811 812 812 812 812 812 812 812 813 814 814 815 816 816 816 817 817 817 817 817 818 818 819 819 819 820 821 821 822 822 822 822 822
771 771 771 770 779 783 787 797 802 804 799 796 788 772 771 771 767 767 763 760 758 757 759 759 769 770 767 776 778 784 788 784 783 780 781 781 781 783 785 787 788 789 791 793 793 795 797 798 799 800 801 803 804 805 805 807 807 808 808 809 810 810 811 812 812 813 813 813 813 813 813 814 814 815 815 816 817 817 817 817 818 818 818 818 818 818 819 819 820 820 821 822 822 823 823 823 823
771 771 771 771 778 782 790 800 803 803 790 785 782 769 772 772 766 767 764 762 758 757 758 759 766 771 775 777 776 783 783 782 783 780 780 781 783 785 786 788 790 791 793 794 795 796 798 799 800 801 802 804 804 805 806 807 808 809 810 810 811 811 812 813 813 813 814 814 814 814 814 815 815 816 816 817 817 818 818 818 819 819 819 819 818 819 819 819 820 821 821 822 823 823 824 824 824
771 773 774 777 782 784 796 802 799 800 786 780 780 769 770 771 766 765 766 766 764 760 759 761 761 769 783 781 781 783 779 780 780 780 781 782 785 787 788 789 791 793 794 796 797 798 799 801 801 803 803 804 805 806 807 808 810 810 811 811 812 812 813 813 814 814 815 815 815 815 816 816 817 817 817 818 818 819 819 819 819 820 820 820 819 819 819 819 820 821 821 822 823 823 824 824 825
772 775 778 783 790 792 801 802 796 796 785 776 776 768 767 769 766 765 768 768 771 768 764 764 759 772 787 781 786 787 779 781 779 781 783 785 788 788 789 790 792 794 796 797 798 800 801 802 803 804 804 805 806 807 809 809 810 811 812 812 813 813 813 814 814 815 815 816 816 816 817 817 818 818 818 819 819 820 820 820 820 820 820 820 820 820 820 820 820 821 821 822 822 823 824 825 826
772 776 781 786 794 799 801 800 795 790 783 776 772 766 762 766 767 767 768 767 771 772 768 765 759 774 789 784 789 787 781 783 781 785 786 788 788 788 791 791 793 795 797 798 799 801 802 803 804 805 806 807 808 809 810 810 811 812 812 813 813 814 814 814 815 815 816 816 817 817 818 818 819 819 820 820 820 821 821 821 821 821 821 821 821 821 821 820 820 821 821 822 823 824 825 826 827
775 778 783 790 796 802 803 800 795 787 780 774 769 763 760 763 766 766 766 767 770 774 770 762 761 775 786 788 791 786 784 785 784 789 789 789 789 790 792 793 794 795 798 799 800 802 803 805 805 806 807 808 809 810 810 811 812 812 813 813 814 814 814 815 815 816 817 817 818 818 819 819 820 820 821 821 821 822 822 822 822 822 822 822 822 822 822 821 821 821 822 822 823 825 826 827 828
780 781 782 793 800 802 802 799 793 785 777 772 767 759 757 759 763 765 764 767 770 774 769 763 771 778 783 790 791 787 785 787 788 790 791 791 791 792 793 794 796 796 798 800 802 803 804 806 807 807 808 809 809 810 811 812 812 812 813 813 814 814 815 815 816 817 817 818 819 819 820 820 821 821 821 822 822 822 823 823 823 823 823 823 823 823 823 822 822 821 822 823 824 825 826 828 828
783 785 785 796 801 800 799 798 790 782 776 773 765 753 751 755 761 763 764 768 771 774 767 763 774 776 785 794 790 788 787 789 790 791 792 792 792 793 794 796 797 798 800 801 803 804 805 806 807 808 808 809 810 811 811 812 812 812 813 814 815 815 815 816 817 818 818 819 820 820 821 821 822 822 823 823 823 824 824 824 824 824 824 824 824 824 824 823 823 822 823 824 825 826 827 828 829
783 786 788 795 798 796 795 794 786 783 778 770 761 749 747 753 757 758 762 768 770 774 767 762 767 770 786 794 789 789 789 790 791 792 793 793 793 794 795 797 799 800 801 802 803 804 806 807 807 808 809 809 810 811 811 812 812 813 814 814 815 816 816 817 818 819 820 820 821 821 822 822 823 824 824 825 825 825 825 825 825 825 825 825 825 825 825 824 824 823 824 825 826 827 828 829 829
780 783 786 793 797 793 790 789 784 786 780 764 758 749 746 750 751 752 759 769 771 769 765 761 761 770 786 792 792 791 789 790 790 792 793 794 795 795 797 799 800 802 803 804 804 805 806 807 808 808 809 810 810 811 812 812 813 813 814 815 816 816 817 818 819 820 821 821 822 823 823 824 824 825 826 826 826 826 826 827 827 827 827 827 826 826 826 826 825 825 825 826 826 827 828 829 830
778 781 785 791 795 792 787 786 782 786 778 761 758 751 748 748 745 750 755 764 770 762 761 763 760 771 783 785 790 789 788 790 790 792 794 795 796 797 800 800 802 803 805 805 805 806 806 808 808 809 809 810 811 811 812 812 813 814 815 816 816 817 818 819 820 821 822 823 823 824 824 825 826 826 827 827 827 827 827 827 828 828 828 828 828 827 827 827 826 826 826 827 827 828 829 829 830
776 780 787 792 795 793 787 784 782 784 776 761 756 751 753 752 746 753 752 753 764 763 763 767 762 766 775 776 780 782 786 789 789 792 793 796 798 799 802 802 804 805 806 806 807 807 807 808 809 809 810 810 811 811 812 813 814 815 816 817 818 818 819 820 821 822 823 824 824 825 826 826 826 827 827 828 828 828 828 828 829 829 830 829 829 829 829 828 828 828 828 828 828 829 829 830 831
775 781 791 795 796 793 785 781 780 780 771 762 757 752 758 759 753 754 751 752 762 767 768 769 763 763 770 774 777 781 786 788 789 792 794 798 799 801 803 804 805 806 807 807 807 808 808 809 809 810 810 811 811 812 813 814 815 816 817 818 819 819 820 821 822 823 824 824 825 826 826 827 827 828 828 828 829 829 829 829 829 830 831 830 830 830 830 829 829 829 829 829 829 830 830 831 832
778 786 794 796 794 788 779 775 774 772 768 763 760 756 760 761 759 755 757 765 766 769 773 770 769 770 772 776 779 783 786 788 790 792 795 798 799 801 803 804 805 806 808 808 808 808 808 809 810 811 811 812 812 813 814 815 817 817 818 819 819 821 821 822 823 824 825 825 826 826 827 827 828 828 829 829 829 829 829 830 830 831 831 831 831 831 831 831 830 830 830 830 830 830 831 831 832
779 786 792 791 786 778 771 769 767 767 766 762 760 758 760 760 757 756 764 775 771 773 780 777 777 779 779 780 782 786 788 789 791 791 794 797 798 800 802 804 805 807 807 808 808 808 809 809 810 811 812 813 813 814 815 816 818 818 819 819 820 821 822 823 823 824 825 826 827 827 828 828 829 829 829 829 829 830 830 830 831 831 832 832 832 832 832 832 831 831 831 831 831 831 832 832 833
776 781 789 784 775 772 766 765 763 763 763 762 761 756 760 760 753 756 766 776 775 775 779 779 782 783 782 784 784 788 789 791 792 792 794 796 798 799 801 803 804 806 807 807 808 808 809 810 811 812 813 813 813 814 816 817 818 818 819 820 821 822 823 823 824 825 826 827 827 828 828 829 830 830 830 830 830 830 830 831 831 832 832 832 832 832 832 832 832 832 832 832 831 832 832 832 833
775 777 782 774 770 771 762 761 761 760 761 761 761 759 762 759 754 757 763 775 782 777 771 770 776 779 781 784 785 788 790 791 793 793 794 796 798 799 801 802 804 805 806 807 808 808 809 810 812 813 813 813 814 815 817 818 818 818 819 820 822 822 823 824 825 826 827 828 828 828 829 830 831 831 831 831 831 831 831 831 832 832 832 832 833 832 832 832 832 832 832 832 832 832 833 833 834
774 774 772 768 769 769 758 757 759 757 759 761 763 764 762 759 759 761 759 769 778 774 769 766 769 774 778 782 785 788 790 791 793 793 794 795 798 800 801 803 805 806 807 808 808 809 810 811 812 813 814 814 815 816 817 819 819 819 820 820 822 823 824 824 825 827 827 828 829 829 830 830 831 831 831 831 832 832 832 832 832 832 832 833 833 833 833 832 833 833 833 833 833 833 833 834 834
775 773 767 766 767 767 758 755 756 756 760 762 762 760 759 762 766 764 760 764 766 766 769 769 770 773 777 780 784 788 790 791 792 793 794 795 798 799 801 803 805 806 808 809 809 810 811 811 813 814 814 815 816 817 819 819 819 820 820 821 822 823 824 825 826 827 828 829 829 830 831 831 831 831 831 831 832 832 832 832 832 832 832 833 833 833 833 833 833 833 833 833 833 833 834 834 834
774 773 766 764 764 763 758 755 755 756 760 760 757 756 760 766 767 766 766 766 764 766 769 771 772 774 778 782 785 787 789 791 792 795 795 796 797 799 800 803 805 807 808 810 810 810 811 811 813 814 815 816 817 818 820 820 820 820 821 822 823 824 825 825 827 828 829 829 830 831 831 831 831 831 831 831 832 832 832 833 832 832 832 832 833 833 833 833 833 833 833 833 833 834 834 834 834
772 772 766 762 761 758 755 756 755 755 758 757 755 759 763 764 763 767 771 769 767 768 771 773 775 777 780 783 785 788 790 793 795 796 797 798 799 800 802 804 806 808 809 810 811 811 811 812 814 815 817 818 818 819 820 821 821 821 821 823 824 825 826 826 827 828 829 830 830 831 831 832 831 832 832 832 832 832 832 832 833 833 833 833 832 833 833 833 833 833 834 833 834 834 834 834 834
769 767 765 762 760 756 755 756 754 755 758 756 759 766 767 762 763 776 781 775 772 771 774 776 778 781 783 785 786 788 791 794 795 796 798 799 800 802 804 806 808 809 810 811 811 812 812 813 815 817 818 819 820 820 821 821 821 821 822 823 825 825 826 827 828 828 829 830 830 831 831 831 831 832 832 832 832 832 832 832 832 833 833 833 833 833 833 834 834 834 834 833 833 833 834 834 833
764 764 764 762 761 756 754 755 753 755 756 755 762 770 769 761 765 785 790 781 776 775 778 780 781 784 785 787 789 790 793 794 795 797 798 800 802 804 806 808 810 811 812 812 813 813 814 815 816 817 819 819 820 821 821 821 821 822 823 824 825 826 827 827 828 829 829 830 830 831 831 831 831 832 832 832 832 832 832 832 832 832 833 833 833 833 833 834 834 834 833 833 833 833 833 833 833
763 764 764 762 761 758 754 754 753 754 757 755 759 768 770 766 770 781 783 781 780 778 782 783 784 787 788 790 792 793 794 795 797 798 799 802 803 805 808 810 811 812 813 814 814 815 815 816 817 818 819 820 821 822 822 822 822 823 824 825 825 826 827 827 828 829 829 830 830 830 831 831 831 831 831 832 832 831 831 831 832 832 833 833 833 834 833 833 833 833 832 832 832 831 831 831 832
762 763 767 765 761 760 754 752 753 753 758 755 756 773 780 776 776 777 776 779 783 783 784 786 788 789 790 792 794 795 796 797 798 800 801 803 805 807 809 811 812 813 814 815 816 816 817 817 818 818 819 821 821 822 822 822 823 823 824 825 826 826 826 827 828 829 829 830 830 830 830 831 831 831 831 831 831 831 831 831 832 832 832 832 832 832 832 832 832 831 830 830 830 830 829 830 830
764 764 768 769 769 766 754 752 752 752 758 752 754 781 792 785 783 782 779 780 784 788 788 788 791 791 793 794 796 798 798 799 800 801 803 803 805 807 809 812 813 814 815 816 817 818 818 818 819 819 820 821 822 822 823 823 823 824 825 826 826 826 826 827 828 828 829 829 829 830 830 830 830 830 830 831 831 831 831 831 831 831 832 831 831 830 830 830 830 829 829 828 828 828 828 828 828
766 767 770 775 779 771 756 753 754 753 756 750 753 781 795 792 792 788 784 784 783 788 789 790 792 793 794 795 797 800 799 800 801 802 803 804 806 808 810 812 813 815 816 817 818 819 819 820 820 820 820 821 822 823 823 823 824 824 825 826 826 826 826 827 827 828 828 828 829 829 829 829 829 830 830 831 831 831 831 830 830 830 830 830 829 828 828 828 828 828 828 828 828 828 827 827 828
769 774 779 782 781 772 760 755 754 753 755 750 756 782 797 796 796 790 788 790 786 786 789 790 792 793 794 795 798 801 801 802 802 803 804 805 807 809 811 813 814 816 816 818 819 820 820 821 822 822 822 822 823 823 823 823 824 824 825 826 826 826 826 826 827 827 827 828 828 828 829 828 829 829 830 830 831 831 830 829 829 829 828 827 827 826 827 827 828 828 828 828 827 827 827 827 827
776 779 783 782 779 775 768 759 754 754 755 755 760 779 795 797 796 792 789 793 791 789 790 790 792 794 794 796 798 801 802 803 804 805 805 806 808 810 812 813 815 816 817 819 819 820 821 822 823 823 823 823 824 824 824 824 824 824 825 825 826 826 826 826 827 827 827 828 828 828 828 828 828 829 829 830 830 830 829 828 827 827 826 825 825 825 826 826 827 827 827 827 827 826 827 827 826
784 783 782 781 779 777 773 765 760 758 758 763 766 774 788 791 791 791 791 794 795 792 791 791 792 794 795 796 799 802 803 805 806 807 807 808 810 812 813 814 815 817 818 819 820 821 822 823 824 824 824 824 824 824 824 825 824 825 825 825 826 826 826 826 827 827 827 827 827 827 827 827 827 828 829 829 829 828 828 827 826 824 823 823 824 825 825 825 825 825 825 825 826 825 825 825 825
784 783 781 781 780 777 774 767 764 763 765 770 773 780 790 792 791 792 793 794 796 793 789 790 793 794 796 797 800 803 805 807 808 808 809 810 811 812 814 815 816 818 819 820 821 822 823 824 825 825 825 824 824 825 824 825 825 825 826 826 826 826 826 826 826 826 826 826 826 826 826 826 826 827 828 828 827 827 826 825 823 821 822 824 824 824 824 824 824 824 824 824 825 825 824 824 823
778 778 777 778 778 777 773 769 766 766 775 783 782 788 795 795 797 798 799 797 799 799 792 791 796 796 798 800 802 805 807 809 809 809 810 811 812 813 815 816 817 819 821 821 822 823 824 825 826 826 826 825 825 825 825 825 825 825 826 826 826 826 826 826 826 826 826 825 825 825 826 826 826 826 827 827 826 825 825 824 821 820 822 824 823 822 822 822 823 823 823 823 823 823 823 822 822
774 776 778 778 778 777 771 771 771 764 779 797 792 792 796 797 802 803 803 803 804 805 800 796 798 799 801 802 805 807 809 810 810 811 812 813 814 815 816 817 818 820 822 823 823 824 825 825 826 827 826 825 825 825 825 825 825 825 826 826 826 826 826 826 825 825 825 825 825 825 826 825 825 825 825 825 824 824 823 822 821 820 821 822 821 821 821 821 822 822 822 822 822 821 821 821 821
774 777 780 781 780 777 770 772 774 765 779 801 797 794 799 800 804 804 803 805 807 809 806 802 801 802 803 805 808 811 812 812 811 813 815 815 817 817 818 818 819 822 823 824 825 825 826 826 827 827 827 826 826 825 825 825 825 825 825 826 826 826 826 825 825 825 825 825 825 825 826 825 825 824 824 824 823 822 821 821 820 820 819 819 820 819 819 820 820 821 821 821 820 820 819 819 820
776 779 781 784 780 776 775 778 778 772 784 802 799 798 804 804 805 805 804 804 808 810 809 808 805 804 807 809 811 813 814 813 812 815 817 817 819 819 820 820 820 822 824 824 826 826 826 827 828 828 828 827 827 826 826 825 825 825 825 826 826 826 826 826 826 825 825 825 825 825 825 825 824 824 823 823 822 821 820 819 819 819 818 818 818 818 818 818 819 819 819 819 819 819 818 817 818
777 779 782 785 780 777 783 789 788 780 784 797 799 801 806 806 808 809 807 806 808 811 811 811 808 807 810 811 813 815 815 814 814 817 819 819 821 822 822 822 822 823 824 825 826 827 827 827 829 829 829 828 828 827 827 826 826 825 825 825 825 825 826 826 826 825 825 825 825 824 824 824 823 823 822 822 821 820 819 818 818 818 818 818 817 817 817 817 817 817 818 818 818 817 816 815 815
779 778 779 782 780 779 786 792 792 788 790 793 797 808 811 808 812 813 810 809 810 811 812 813 811 811 813 814 814 817 816 814 816 819 820 822 823 823 824 824 825 825 826 827 827 827 828 828 829 829 829 829 829 828 827 826 826 825 824 824 824 824 824 824 824 825 825 825 825 825 824 824 823 823 822 821 820 819 818 817 817 816 816 817 817 816 816 815 815 815 816 816 816 816 815 814 813
780 777 775 777 777 781 790 793 793 803 810 798 796 813 818 810 813 815 811 811 812 811 813 815 814 815 816 817 818 818 817 816 817 820 822 825 824 824 825 825 826 828 828 829 829 829 829 829 830 830 829 829 829 828 828 827 826 825 824 824 824 824 825 824 825 825 825 825 825 825 825 824 824 823 822 821 820 819 818 817 816 816 815 815 815 815 815 814 814 814 814 814 814 814 814 813 812
782 774 770 772 774 781 791 792 796 811 813 796 793 808 819 816 814 815 813 813 814 812 815 816 817 819 819 820 820 819 819 818 819 823 825 826 825 826 827 826 827 829 830 830 829 829 830 831 831 831 830 830 829 829 829 828 827 826 825 824 824 824 825 825 825 825 825 826 826 825 824 824 824 824 823 822 821 820 819 818 816 815 815 815 814 814 814 814 813 813 813 813 812 812 812 811 810
780 770 767 771 772 778 787 788 794 802 800 795 794 797 811 818 811 811 814 815 815 814 816 818 819 821 821 821 822 821 820 819 820 825 826 826 827 829 829 828 828 829 830 830 830 830 831 832 832 832 831 831 830 830 830 829 828 827 826 825 826 825 825 825 825 824 824 824 824 824 823 823 823 823 823 822 821 820 819 818 817 816 815 815 814 814 814 813 812 812 811 811 810 810 810 809 808
772 764 763 768 768 771 778 784 790 794 797 805 802 795 809 819 808 809 817 817 817 816 816 819 820 821 822 822 823 823 822 821 821 826 827 826 829 830 830 829 830 831 831 831 831 831 832 833 833 832 831 831 831 831 830 830 829 829 828 828 828 828 827 826 825 824 823 822 822 821 821 821 822 823 822 822 821 820 819 818 817 816 815 814 814 813 813 812 811 810 810 809 809 808 808 807 806
764 759 759 762 767 770 775 783 789 795 802 806 803 796 807 820 813 811 818 816 813 815 816 818 820 821 822 823 824 824 824 822 824 828 828 828 831 831 831 831 832 833 833 833 833 832 833 833 833 832 832 832 832 833 832 832 831 831 830 830 830 830 829 828 827 826 824 823 822 821 821 820 821 821 821 821 821 820 819 818 816 815 814 814 813 812 811 811 810 809 808 808 807 806 806 805 804
759 760 762 764 769 771 776 784 787 801 808 799 795 794 799 814 816 809 810 805 802 810 817 819 820 822 823 823 824 824 824 824 827 830 830 830 832 832 832 833 834 835 834 833 833 833 833 833 833 832 833 834 834 834 834 833 833 832 832 831 831 831 831 830 829 828 827 826 825 824 823 822 821 821 820 820 820 819 818 817 816 815 814 813 812 811 810 809 809 807 807 806 806 805 804 803 802
760 763 766 772 778 777 783 789 791 803 806 790 789 795 795 804 809 802 801 799 796 804 813 818 821 824 824 824 824 824 825 827 830 831 831 832 833 833 834 834 836 836 835 834 834 834 834 834 834 834 836 837 837 836 836 835 834 834 833 833 832 832 832 831 830 830 829 829 828 827 826 825 824 822 821 820 819 818 817 816 815 814 813 813 812 811 809 808 807 806 805 804 804 803 802 801 799
764 767 770 781 791 792 793 799 801 802 797 789 789 792 795 801 805 803 800 799 799 802 809 816 820 822 823 824 825 826 827 829 831 832 832 833 834 835 836 836 837 837 835 834 834 834 835 836 836 837 839 839 839 839 838 837 836 835 835 834 834 833 833 832 832 832 831 831 830 829 828 827 826 825 824 822 821 819 817 816 815 814 813 813 812 811 809 808 807 805 804 803 802 801 800 799 798
768 770 773 784 794 800 803 807 809 801 792 793 791 788 797 805 807 807 803 800 801 805 811 816 819 821 823 825 826 827 829 830 832 832 832 834 835 836 837 837 838 838 837 835 834 835 836 838 839 840 840 841 841 841 840 839 838 837 836 836 835 835 834 834 833 833 833 832 831 830 829 829 828 827 826 825 824 822 820 819 817 816 815 814 813 811 810 808 807 805 803 802 800 799 798 797 795
766 764 766 777 782 786 795 797 797 794 794 798 795 793 803 806 806 808 805 802 804 808 813 817 819 822 824 826 828 829 832 833 833 833 834 835 836 837 837 837 839 838 838 837 835 836 838 839 840 841 842 842 842 842 841 840 840 839 838 837 837 836 835 835 835 834 834 832 832 831 830 829 829 828 827 827 826 824 822 821 819 818 816 815 814 812 810 809 807 805 803 801 799 798 796 794 793
763 760 763 772 768 768 783 789 786 789 793 799 804 808 811 809 809 810 806 805 808 811 816 818 821 824 825 828 830 831 833 834 834 835 835 836 837 838 838 838 839 838 838 838 837 837 839 840 842 842 843 843 843 843 843 842 841 840 840 839 838 837 837 836 836 836 835 833 832 831 830 830 829 829 828 827 827 825 823 822 821 819 817 816 814 813 811 809 806 804 801 800 798 796 794 792 791
761 763 763 762 754 757 777 789 793 792 789 799 815 818 815 813 813 812 809 809 812 816 818 820 822 825 827 830 831 832 834 834 835 835 835 837 838 838 838 839 839 839 840 840 839 839 840 841 843 843 844 844 844 844 843 843 842 842 841 840 840 839 838 838 837 837 836 834 833 832 831 830 829 829 828 827 827 825 824 822 821 819 817 816 814 812 810 808 805 803 800 798 797 795 793 791 790
755 761 756 753 755 760 767 778 794 796 793 807 820 817 814 813 812 813 813 813 815 817 818 820 824 826 828 831 831 833 834 834 835 836 836 838 838 839 839 839 840 840 841 841 841 841 841 843 844 844 845 845 845 845 844 844 844 843 843 842 841 840 839 839 839 838 837 836 834 833 832 831 830 829 828 827 826 825 824 822 820 818 816 815 813 811 809 806 804 802 799 798 796 793 791 789 788
740 744 742 748 763 769 767 774 787 792 804 819 819 815 814 809 808 809 809 811 813 815 817 820 824 826 828 831 833 834 835 835 836 837 837 838 839 839 839 840 841 841 842 842 843 843 843 844 845 845 846 846 846 846 845 846 845 844 844 843 842 841 840 841 840 840 838 837 835 834 833 831 830 829 828 827 826 824 823 821 819 817 815 813 811 809 807 805 802 801 798 796 794 792 790 787 786
735 739 741 744 753 759 762 771 774 779 804 821 814 814 812 800 800 804 803 806 809 810 814 818 822 826 828 831 833 834 835 836 836 837 838 839 840 840 840 840 842 842 843 844 844 844 845 846 846 847 847 847 847 847 847 847 846 846 845 844 843 842 842 842 842 841 840 838 837 835 834 833 831 830 829 827 826 824 823 821 819 817 815 813 811 808 806 804 802 800 797 795 792 790 788 786 784
740 746 750 748 749 753 757 767 771 775 796 812 812 813 805 789 789 796 799 802 804 806 811 816 821 825 827 830 831 834 835 836 837 837 839 840 840 841 841 841 843 843 844 845 845 846 847 847 848 848 848 848 848 848 848 848 847 847 846 844 844 844 844 844 843 842 841 839 838 836 835 835 833 831 830 828 826 824 823 822 820 818 816 813 811 808 806 804 801 799 797 794 791 789 787 785 782
735 740 746 747 747 753 761 770 777 778 783 794 800 798 792 788 787 789 796 799 800 805 810 816 822 824 827 829 830 833 836 836 837 837 839 841 841 841 842 842 844 844 845 846 846 847 848 849 849 849 850 849 849 849 849 849 848 847 846 846 846 846 846 846 845 844 843 841 840 839 837 836 834 832 831 829 827 825 824 823 821 819 817 814 812 809 807 804 801 799 796 794 791 789 786 784 781